Overview Statistics Trail Chart Weather Telemetry Raw packets
 

This is the latest recevied weather packets stored in our database for station/object EA3DJ-10. If no packets are shown the sender has not sent any weather packets the latest 10 day(s).

<< 22 23 24 25 26 27 28 >>
Time Temp. Humidity Pressure Rain* Wind** Luminosity Snow
1787939941 27.22° C 31% 1016.7 hPa - - - -
1787938740 27.22° C 32% 1016.8 hPa - - - -
1787937540 26.67° C 32% 1016.9 hPa - - - -
1787936340 25° C 34% 1017.1 hPa - - - -
1787935140 23.89° C 35% 1017.1 hPa - - - -
1787933940 25° C 36% 1017.2 hPa - - - -
1787932740 26.67° C 33% 1017 hPa - - - -
1787931540 28.89° C 30% 1016.8 hPa - - - -
1787930337 28.89° C 30% 1016.9 hPa - - - -
1787929137 28.89° C 30% 1016.8 hPa - - - -
1787927936 28.89° C 29% 1016.9 hPa - - - -
1787926736 28.89° C 30% 1017.1 hPa - - - -
1787925536 28.89° C 31% 1017.4 hPa - - - -
1787924336 28.89° C 31% 1017.5 hPa - - - -
1787923136 28.89° C 31% 1017.9 hPa - - - -
1787921936 28.89° C 30% 1018.1 hPa - - - -
1787920736 28.89° C 29% 1018.3 hPa - - - -
1787919536 28.89° C 29% 1018.2 hPa - - - -
1787918335 28.89° C 28% 1018.1 hPa - - - -
1787917135 28.89° C 28% 1018.1 hPa - - - -
1787915935 28.89° C 28% 1018.3 hPa - - - -
1787914735 28.89° C 27% 1018.3 hPa - - - -
1787913535 28.89° C 27% 1018.1 hPa - - - -
1787912335 28.89° C 27% 1017.8 hPa - - - -
1787911135 28.89° C 27% 1018.4 hPa - - - -

* Rain since midnight (hover to see other rain measurements)
** Current wind speed in m/s (hover to see current wind gust speed)